Weather History for Van, Turkey

Change the Weather History Date:

Tuesday, February 5, 2013

  Actual Average Record
Temperature  
Mean Temperature 23 °F -  
Max Temperature 33 °F 37 °F 50 °F (1999)
Min Temperature 13 °F 20 °F 5 °F (2012)
Degree Days  
Heating Degree Days 42    
Moisture  
Dew Point 20 °F    
Average Humidity 86    
Maximum Humidity 98    
Minimum Humidity 65    
Precipitation  
Precipitation 0.00 in 0.05 in - ()
Sea Level Pressure  
Sea Level Pressure 30.20 in    
Wind  
Wind Speed 3 mph ()    
Max Wind Speed 13 mph    
Max Gust Speed -    
Visibility 3.4 miles    
Events Snow    
Averages and records for this station are not official NWS values.
T = Trace of Precipitation, MM = Missing Value Source: Averaged Metar Reports

Daily Weather History Graph

Daily Weather History Graph

Search for Another Location

Airport:

Trip Planner

Search our weather history database for the weather conditions in past years. The results will help you decide how hot, cold, wet, or windy it might be!

Date:

Astronomy

Feb. 05, 2013 Rise Set
Actual Time 6:08 AM EET 4:33 PM EET
Civil Twilight 5:40 AM EET 5:01 PM EET
Nautical Twilight 5:09 AM EET 5:32 PM EET
Astronomical Twilight 4:38 AM EET 6:03 PM EET
Moon 1:24 AM EET (2/5) 11:31 AM EET (2/5)
Length of Visible Light 11h 20m
Length of Day
10h 25m
Waning Crescent, 30% of the Moon is Illuminated
Feb 5
Waning Crescent
Feb 10
New
Feb 17
First Quarter
Feb 25
Full
Mar 4
Last Quarter

Hourly Weather History & Observations

Time (EET) Temp. Windchill Dew Point Humidity Pressure Visibility Wind Dir Wind Speed Gust Speed Precip Events Conditions
12:50 AM 15.8 °F - 14.0 °F 93% 30.27 in 4.3 mi East 2.3 mph - N/A   Mostly Cloudy
1:50 AM 15.8 °F 10.2 °F 14.0 °F 93% 30.27 in 4.3 mi East 3.5 mph - N/A   Mostly Cloudy
2:00 AM 16 °F - 16 °F 98%  in 4 mi East 3.5 mph - -   Mist
2:50 AM 15.8 °F 8.6 °F 14.0 °F 93% 30.27 in 3.7 mi East 4.6 mph - N/A   Mostly Cloudy
3:50 AM 15.8 °F - 14.0 °F 93% 30.24 in 3.7 mi NE 2.3 mph - N/A   Mostly Cloudy
4:50 AM 17.6 °F 12.3 °F 15.8 °F 93% 30.24 in 3.7 mi East 3.5 mph - N/A   Mostly Cloudy
5:50 AM 17.6 °F 12.3 °F 15.8 °F 93% 30.24 in 3.7 mi East 3.5 mph - N/A   Mostly Cloudy
6:50 AM 19.4 °F - 17.6 °F 93% 30.24 in 3.7 mi Variable 2.3 mph - N/A   Mostly Cloudy
7:50 AM 23.0 °F - 19.4 °F 86% 30.27 in 2.8 mi East 2.3 mph - N/A   Mostly Cloudy
8:00 AM 23 °F - 19 °F 79%  in 3 mi East 2.3 mph - -   Mist
8:50 AM 33.8 °F - 23.0 °F 65% 30.24 in 2.8 mi Calm Calm - N/A   Haze
9:50 AM 30.2 °F 26.7 °F 23.0 °F 75% 30.24 in 4.3 mi NNW 3.5 mph - N/A   Mostly Cloudy
10:50 AM 30.2 °F 25.4 °F 24.8 °F 80% 30.21 in 3.7 mi WNW 4.6 mph - N/A   Mostly Cloudy
11:50 AM 30.2 °F 24.3 °F 24.8 °F 80% 30.21 in 3.7 mi NNW 5.8 mph - N/A   Mostly Cloudy
12:50 PM 30.2 °F 26.7 °F 23.0 °F 75% 30.21 in 4.3 mi NW 3.5 mph - N/A   Mostly Cloudy
1:50 PM 24.8 °F 13.4 °F 23.0 °F 93% 29.53 in 1.0 mi WSW 12.7 mph - N/A Snow Snow
2:50 PM 32.0 °F 27.5 °F 24.8 °F 75% 30.21 in 4.3 mi West 4.6 mph - N/A   Mostly Cloudy
3:50 PM 32.0 °F - 24.8 °F 75% 30.18 in 4.3 mi Variable 2.3 mph - N/A   Mostly Cloudy
4:50 PM 30.2 °F 25.4 °F 24.8 °F 80% 30.21 in 2.2 mi SSE 4.6 mph - N/A   Mist
5:50 PM 26.6 °F 22.6 °F 23.0 °F 86% 30.21 in 3.7 mi East 3.5 mph - N/A   Scattered Clouds
6:50 PM 26.6 °F 22.6 °F 23.0 °F 86% 30.21 in 2.2 mi ENE 3.5 mph - N/A   Scattered Clouds
7:50 PM 24.8 °F - 21.2 °F 86% 30.21 in 2.2 mi North 1.2 mph - N/A   Scattered Clouds
8:00 PM 25 °F - 23 °F 87%  in 2 mi North 1.2 mph - -   Mist
8:50 PM 23.0 °F 17.0 °F 19.4 °F 86% 30.21 in 2.2 mi East 4.6 mph - N/A   Scattered Clouds
9:50 PM 23.0 °F 17.0 °F 21.2 °F 93% 30.21 in 3.7 mi ENE 4.6 mph - N/A   Unknown
10:50 PM 21.2 °F 16.4 °F 17.6 °F 86% 30.21 in 4.3 mi East 3.5 mph - N/A   Unknown
11:50 PM 23.0 °F - 21.2 °F 93% 30.24 in 4.3 mi Variable 2.3 mph - N/A   Unknown